Kodiak, AK

9:48 PM AKDT on May 22, 2018 (GMT -0800)
Kodiak

Weather History for PADQ - April, 2013

Change the Weather History Date:

Wednesday, April 10, 2013

  Actual Average Record
Temperature  
Mean Temperature 21 °F 36 °F  
Max Temperature 27 °F 41 °F 55 °F (1948)
Min Temperature 15 °F 31 °F 15 °F (2013)
Degree Days  
Heating Degree Days 44 29  
Month to date heating degree days 340 296  
Since 1 July heating degree days 7279 7166  
Cooling Degree Days 0 0  
Month to date cooling degree days 0 0  
Year to date cooling degree days 0 0  
Moisture  
Dew Point 2 °F    
Average Humidity 0    
Maximum Humidity 0    
Minimum Humidity 0    
Precipitation  
Precipitation 0.00 in 0.20 in 1.26 in (1939)
Month to date precipitation 0.14 1.96  
Year to date precipitation 20.79 21.92  
Snow  
Snow 0.00 in 0.30 in - ()
Month to date snowfall 0.1 3.9  
Since 1 July snowfall 60.2 64.6  
Snow Depth T in    
Sea Level Pressure  
Sea Level Pressure 29.88 in    
Wind  
Wind Speed 9 mph (West)    
Max Wind Speed 21 mph    
Max Gust Speed 25 mph    
Visibility 10 miles    
Events      
T = Trace of Precipitation, MM = Missing Value Source: NWS Daily Summary

Daily Weather History Graph

Daily Weather History Graph

Search for Another Location

Airport or City:

Astronomy

Apr. 10, 2013 Rise Set
Actual Time 7:12 AM AKDT 9:11 PM AKDT
Civil Twilight 6:30 AM AKDT 9:53 PM AKDT
Nautical Twilight 5:37 AM AKDT 10:46 PM AKDT
Astronomical Twilight 4:34 AM AKDT 11:51 PM AKDT
Moon 7:06 AM AKDT (4/10) 10:13 PM AKDT (4/10)
Length of Visible Light 15h 22m
Length of Day
13h 59m
New Moon, 0% of the Moon is Illuminated
Apr 10
New Moon
Apr 18
First Quarter
Apr 25
Full
May 2
Last Quarter
May 9
New

Hourly Weather History & Observations

Time (AKDT) Temp. Windchill Dew Point Humidity Pressure Visibility Wind Dir Wind Speed Gust Speed Precip Events Conditions
12:53 AM 17.1 °F 3.6 °F -2.0 °F 43% 29.68 in 10.0 mi West 12.7 mph 21.9 mph N/A   Clear
1:53 AM 18.0 °F 3.1 °F -2.0 °F 41% 29.72 in 10.0 mi WNW 16.1 mph 24.2 mph N/A   Partly Cloudy
2:53 AM 17.1 °F 3.0 °F -2.9 °F 41% 29.74 in 10.0 mi NW 13.8 mph 18.4 mph N/A   Overcast
3:53 AM 17.1 °F 11.7 °F -2.0 °F 43% 29.76 in 10.0 mi SSW 3.5 mph - N/A   Mostly Cloudy
4:53 AM 17.1 °F 7.6 °F -2.0 °F 43% 29.77 in 10.0 mi WSW 6.9 mph 17.3 mph N/A   Mostly Cloudy
5:53 AM 16.0 °F 4.4 °F -0.9 °F 47% 29.79 in 10.0 mi West 9.2 mph - N/A   Clear
6:53 AM 17.1 °F - -0.9 °F 45% 29.80 in 10.0 mi Calm Calm - N/A   Partly Cloudy
7:53 AM 16.0 °F 7.4 °F -0.9 °F 47% 29.82 in 10.0 mi SW 5.8 mph - N/A   Partly Cloudy
8:53 AM 19.0 °F 8.2 °F -0.0 °F 43% 29.84 in 10.0 mi SW 9.2 mph - N/A   Partly Cloudy
9:53 AM 21.0 °F 9.9 °F -2.0 °F 36% 29.85 in 10.0 mi WSW 10.4 mph 17.3 mph N/A   Clear
10:53 AM 21.9 °F 11.0 °F -0.9 °F 37% 29.87 in 10.0 mi SW 10.4 mph 17.3 mph N/A   Scattered Clouds
11:53 AM 23.0 °F 10.6 °F -0.0 °F 37% 29.89 in 10.0 mi West 13.8 mph - N/A   Scattered Clouds
12:53 PM 25.0 °F 15.5 °F 3.0 °F 39% 29.91 in 10.0 mi WNW 9.2 mph - N/A   Scattered Clouds
1:53 PM 25.0 °F 11.3 °F 3.9 °F 41% 29.92 in 10.0 mi WNW 18.4 mph 24.2 mph N/A   Scattered Clouds
2:53 PM 26.1 °F 14.5 °F 1.0 °F 34% 29.94 in 10.0 mi West 13.8 mph 19.6 mph N/A   Scattered Clouds
3:53 PM 24.1 °F 15.2 °F 3.0 °F 40% 29.95 in 10.0 mi West 8.1 mph 17.3 mph N/A   Scattered Clouds
4:53 PM 26.1 °F 16.2 °F 3.9 °F 39% 29.95 in 10.0 mi WSW 10.4 mph 16.1 mph N/A   Scattered Clouds
5:53 PM 24.1 °F 12.0 °F 5.0 °F 44% 29.96 in 10.0 mi WNW 13.8 mph 21.9 mph N/A   Scattered Clouds
6:53 PM 25.0 °F 15.5 °F 7.0 °F 46% 29.97 in 10.0 mi West 9.2 mph - N/A   Scattered Clouds
7:53 PM 21.9 °F 13.4 °F 6.1 °F 51% 29.99 in 10.0 mi West 6.9 mph - N/A   Scattered Clouds
8:53 PM 21.9 °F 14.5 °F 6.1 °F 51% 29.99 in 10.0 mi West 5.8 mph - N/A   Scattered Clouds
9:53 PM 21.9 °F 12.5 °F 6.1 °F 51% 30.01 in 10.0 mi SW 8.1 mph - N/A   Scattered Clouds
10:53 PM 19.9 °F 14.9 °F 5.0 °F 52% 30.01 in 10.0 mi SW 3.5 mph - N/A   Partly Cloudy
11:53 PM 17.1 °F 10.0 °F 7.0 °F 65% 30.02 in 10.0 mi West 4.6 mph - N/A   Clear